Location: Unspecified
(0.0000°N, 0.0000°E)
Time: 05:21:48
(UTC+00:00)

STRAND 1 - Pass Details

Date: 12 August 2024
Orbit: 764 x 777 km, 98.4° (Epoch: 14 September)

Event Time Altitude Azimuth Distance (km) Brightness Sun altitude
Rises 05:15:37 0° 147° (SSE) 3,248 ? -11.9°
Reaches altitude 10° 05:18:14 10° 136° (SE) 2,316 ? -11.3°
Maximum altitude 05:22:33 28° 78° (ENE) 1,418 ? -10.3°
Drops below altitude 10° 05:26:50 10° 20° (NNE) 2,301 ? -9.2°
Sets 05:29:24 0° 8° (N) 3,222 ? -8.6°
